758  
NZUS59 KLOT 250109  
HRRLOT  
 
CHICAGO AREA WEATHER ROUNDUP  
NATIONAL WEATHER SERVICE CHICAGO/ROMEOVILLE IL  
800 PM CDT THU SEP 24 2020  
 
NOTE: "FAIR" INDICATES FEW OR NO CLOUDS BELOW 12,000 FEET WITH NO  
SIGNIFICANT WEATHER AND/OR OBSTRUCTIONS TO VISIBILITY.  
 
* THESE STATIONS ARE NOT UNDER NWS QUALITY CONTROL. THEY ALSO MAY NOT  
REPORT WEATHER SUCH AS PRECIPITATION OR FOG.  
 
ILZ005-006-012>014-019>023-250200-  
NORTHEAST ILLINOIS  
 
CITY SKY/WX TMP DP RH WIND PRES REMARKS  
OHARE MOCLDY 73 55 53 S5 29.92R  
MIDWAY MOCLDY 75 53 46 SW6 29.92R  
AURORA MOCLDY 68 58 70 S3 29.92R  
LANSING* PTCLDY 64 54 70 S3 29.94R  
JOLIET* MOCLDY 65 58 79 CALM 29.93R  
WAUKEGAN MOCLDY 67 61 81 CALM 29.92R  
DUPAGE AIRPORT MOCLDY 66 57 72 CALM 29.92R  
WHEELING MOCLDY 70 57 63 CALM 29.93R  
KANKAKEE* PTCLDY 64 54 68 CALM 29.95R  
MORRIS* MOCLDY 67 55 63 CALM 29.92R  
LEWIS AIRPORT* MOCLDY 67 56 67 SW5 29.93R  
NORTHERLY ISL N/A 67 62 84 S3 N/A  

 
 
WIZ051-052-058>065-066-070>072-250200-  
SOUTHEAST WISCONSIN  
 
CITY SKY/WX TMP DP RH WIND PRES REMARKS  
MILWAUKEE MOCLDY 69 61 75 S9 29.90S  
KENOSHA* MOCLDY 68 60 75 SE6 29.92R  
RACINE* MOCLDY 68 60 75 S9 29.93S  
BURLINGTON MOCLDY 64 61 90 CALM 29.91S  
WAUKESHA CLEAR 66 57 72 SE5 29.90F  
WEST BEND MOCLDY 63 63 100 CALM 29.90R  

 
 
INZ001>003-010>013-019-020-250200-  
NORTHWEST INDIANA  
 
CITY SKY/WX TMP DP RH WIND PRES REMARKS  
GARY* PTCLDY 61 57 88 CALM 29.94R  
MICHIGAN CITY* NOT AVBL  
RENSSELAER* NOT AVBL  
VALPARAISO CLEAR 65 54 67 CALM 29.95R  

 
 
LMZ740>746-250200-  
SOUTHERN LAKE MICHIGAN  
 
STATION/POSITION TIME SKY/WX TEMP WIND PRES VSBY  
AIR DIR/SP/G  
(UTC) (F) (DEG/KT/KT) (MB) (MI)  
HARRISON CRIB 0040 70 130/ 10/ 11 N/A  
NORTHERLY ISL 0045 67 160/ 4/ 10 N/A  
CALUMET HARBOR 0030 69 10/ 1/ 2 1012.9R  
BURNS HARBOR NOT AVBL  
MICHIGAN CITY NOT AVBL  

 
 
ABBREVIATIONS USED IN REMARKS  
TC - TEMPERATURE IN CELSIUS  
WCI - WIND CHILL INDEX  
HX - HEAT INDEX  
VSB - VISIBILITY  

 
 
 
CLICK HERE TO GO TO PREVIOUS BULLETINS.

The Nexlab IL Page
The Nexlab IN Page Main Text Page